When you browse on this site, cookies collect data to enhance your experience and personalize the content and advertising you see.
Visit our Privacy Policy to learn more. By continuing to use the site, you agree to this use of cookies and data.
  • In Lithuania
  • List of Countries
  • For 7 days
  • Water Temperature
  • Satellite Maps
  • Weather Map
  • Weather Widgets
  • user-avatar
    Login

    Hourly Weather Booué

    Today, 22 April, Monday

    Time Temperature Precipitation Wind Pressure Humidity
    00:00 +24°C° 0 mm 0 mps 733 mmHg 89%
    01:00 +24°C° 0 mm 0 mps 733 mmHg 91%
    02:00 +24°C° 0 mm 0 mps 733 mmHg 92%
    03:00 +24°C° 0 mm 0 mps 733 mmHg 93%
    04:00 +23°C° 0 mm 0 mps 733 mmHg 94%
    05:00 +24°C° 0 mm 0 mps 733 mmHg 93%
    06:00 +24°C° 0 mm 0 mps 733 mmHg 92%
    07:00 +24°C° 0 mm 0 mps 733 mmHg 91%
    08:00 +27°C° 0 mm 0 mps 734 mmHg 80%
    09:00 +30°C° 0 mm 0 mps 734 mmHg 69%
    10:00 +32°C° 0 mm 0 mps 734 mmHg 59%
    11:00 +33°C° 0 mm 0 mps 734 mmHg 54%
    12:00 +35°C° 0 mm 0 mps 733 mmHg 49%
    13:00 +36°C° 0 mm 0 mps 733 mmHg 46%
    14:00 +35°C° 0 mm 0 mps 732 mmHg 47%
    15:00 +34°C° 0 mm 0 mps 731 mmHg 49%
    16:00 +33°C° 0 mm 0 mps 731 mmHg 51%
    17:00 +31°C° 0 mm 0 mps 731 mmHg 58%
    18:00 +29°C° 0 mm 0 mps 731 mmHg 65%
    19:00 +28°C° 0 mm 0 mps 731 mmHg 72%
    20:00 +27°C° 0 mm 0 mps 732 mmHg 75%
    21:00 +26°C° 0 mm 0 mps 732 mmHg 79%
    22:00 +28°C° 0 mm 1 mps 733 mmHg 82%
    23:00 +27°C° 0 mm 1 mps 732 mmHg 85%

    Tomorrow, 23 April, Tuesday

    Time Temperature Precipitation Wind Pressure Humidity
    00:00 +27°C° 0 mm 1 mps 732 mmHg 88%
    01:00 +26°C° 0 mm 1 mps 732 mmHg 90%
    02:00 +26°C° 0 mm 1 mps 732 mmHg 92%
    03:00 +26°C° 0 mm 1 mps 732 mmHg 93%
    04:00 +25°C° 0 mm 1 mps 731 mmHg 94%
    05:00 +24°C° 0 mm 0 mps 732 mmHg 93%
    06:00 +24°C° 0 mm 0 mps 732 mmHg 92%
    07:00 +24°C° 0 mm 0 mps 733 mmHg 91%
    08:00 +27°C° 0 mm 0 mps 733 mmHg 81%
    09:00 +29°C° 0 mm 0 mps 734 mmHg 71%
    10:00 +34°C° 0 mm 1 mps 734 mmHg 60%
    11:00 +33°C° 0.3 mm 0 mps 734 mmHg 55%
    12:00 +35°C° 0.3 mm 0 mps 733 mmHg 50%
    13:00 +36°C° 0.3 mm 0 mps 732 mmHg 46%
    14:00 +35°C° 0 mm 0 mps 732 mmHg 48%
    15:00 +34°C° 0 mm 0 mps 731 mmHg 51%
    16:00 +33°C° 0 mm 0 mps 731 mmHg 54%
    17:00 +33°C° 0.5 mm 1 mps 731 mmHg 63%
    18:00 +31°C° 0.5 mm 1 mps 732 mmHg 72%
    19:00 +29°C° 0.5 mm 1 mps 732 mmHg 82%
    20:00 +28°C° 0 mm 1 mps 733 mmHg 84%
    21:00 +28°C° 0 mm 1 mps 733 mmHg 87%
    22:00 +27°C° 0 mm 1 mps 734 mmHg 90%
    23:00 +27°C° 0 mm 1 mps 734 mmHg 90%

    Day after tomorrow, 24 April, Wednesday

    Time Temperature Precipitation Wind Pressure Humidity
    00:00 +27°C° 0 mm 1 mps 734 mmHg 91%
    01:00 +26°C° 0 mm 1 mps 734 mmHg 91%
    02:00 +26°C° 0.3 mm 1 mps 733 mmHg 92%
    03:00 +26°C° 0.3 mm 1 mps 733 mmHg 92%
    04:00 +26°C° 0.3 mm 1 mps 733 mmHg 93%
    05:00 +26°C° 0 mm 1 mps 733 mmHg 93%
    06:00 +26°C° 0 mm 1 mps 734 mmHg 92%
    07:00 +26°C° 0 mm 1 mps 734 mmHg 92%
    08:00 +29°C° 0 mm 1 mps 734 mmHg 81%
    09:00 +31°C° 0 mm 1 mps 735 mmHg 70%
    10:00 +34°C° 0 mm 1 mps 735 mmHg 59%
    11:00 +34°C° 0 mm 1 mps 734 mmHg 57%
    12:00 +32°C° 0 mm 0 mps 734 mmHg 55%
    13:00 +33°C° 0 mm 0 mps 733 mmHg 53%
    14:00 +33°C° 0 mm 0 mps 732 mmHg 53%
    15:00 +33°C° 0 mm 0 mps 732 mmHg 52%
    16:00 +33°C° 0 mm 0 mps 731 mmHg 51%
    17:00 +33°C° 0.5 mm 1 mps 731 mmHg 61%
    18:00 +31°C° 0.5 mm 1 mps 732 mmHg 71%
    19:00 +29°C° 0.5 mm 2 mps 732 mmHg 81%
    20:00 +28°C° 0.3 mm 1 mps 733 mmHg 84%
    21:00 +28°C° 0.3 mm 1 mps 734 mmHg 87%
    22:00 +27°C° 0.3 mm 1 mps 735 mmHg 90%
    23:00 +27°C° 0.2 mm 1 mps 734 mmHg 90%

    25 April, Thursday

    Time Temperature Precipitation Wind Pressure Humidity
    00:00 +27°C° 0.2 mm 1 mps 734 mmHg 91%
    01:00 +27°C° 0.2 mm 2 mps 734 mmHg 92%
    02:00 +26°C° 0.6 mm 1 mps 734 mmHg 93%
    03:00 +26°C° 0.6 mm 1 mps 733 mmHg 95%
    04:00 +26°C° 0.6 mm 1 mps 733 mmHg 96%
    05:00 +26°C° 1.7 mm 1 mps 734 mmHg 97%
    06:00 +26°C° 1.7 mm 1 mps 734 mmHg 97%
    07:00 +26°C° 1.7 mm 1 mps 735 mmHg 98%
    08:00 +27°C° 0.1 mm 1 mps 735 mmHg 90%
    09:00 +29°C° 0.1 mm 1 mps 735 mmHg 82%
    10:00 +31°C° 0.1 mm 1 mps 736 mmHg 74%
    11:00 +32°C° 0 mm 1 mps 735 mmHg 68%
    12:00 +33°C° 0 mm 1 mps 734 mmHg 62%
    13:00 +34°C° 0 mm 1 mps 733 mmHg 56%
    14:00 +34°C° 0 mm 1 mps 732 mmHg 56%
    15:00 +34°C° 0 mm 1 mps 732 mmHg 56%
    16:00 +34°C° 0 mm 1 mps 731 mmHg 57%
    17:00 +33°C° 0 mm 1 mps 731 mmHg 63%
    18:00 +31°C° 0 mm 1 mps 732 mmHg 70%
    19:00 +30°C° 0 mm 1 mps 732 mmHg 76%
    20:00 +29°C° 0.6 mm 1 mps 733 mmHg 79%
    21:00 +29°C° 0.6 mm 1 mps 733 mmHg 82%
    22:00 +28°C° 0.6 mm 1 mps 734 mmHg 85%
    23:00 +28°C° 0.8 mm 1 mps 734 mmHg 88%

    26 April, Friday

    Time Temperature Precipitation Wind Pressure Humidity
    00:00 +27°C° 0.8 mm 1 mps 733 mmHg 91%
    01:00 +27°C° 0.8 mm 1 mps 733 mmHg 94%
    02:00 +26°C° 0.2 mm 1 mps 733 mmHg 95%
    03:00 +26°C° 0.2 mm 1 mps 732 mmHg 95%
    04:00 +26°C° 0.2 mm 1 mps 732 mmHg 96%
    05:00 +26°C° 0 mm 1 mps 733 mmHg 96%
    06:00 +26°C° 0 mm 1 mps 734 mmHg 95%
    07:00 +25°C° 0 mm 0 mps 734 mmHg 95%
    08:00 +26°C° 0 mm 0 mps 735 mmHg 89%
    09:00 +27°C° 0 mm 0 mps 735 mmHg 84%
    10:00 +28°C° 0 mm 0 mps 735 mmHg 78%
    11:00 +31°C° 0 mm 1 mps 734 mmHg 72%
    12:00 +32°C° 0 mm 1 mps 733 mmHg 67%
    13:00 +34°C° 0 mm 1 mps 732 mmHg 61%
    14:00 +34°C° 0 mm 1 mps 732 mmHg 60%
    15:00 +34°C° 0 mm 1 mps 731 mmHg 59%
    16:00 +34°C° 0 mm 1 mps 730 mmHg 58%
    17:00 +32°C° 0 mm 1 mps 731 mmHg 65%
    18:00 +31°C° 0 mm 1 mps 732 mmHg 73%
    19:00 +29°C° 0 mm 1 mps 732 mmHg 81%
    20:00 +29°C° 0 mm 1 mps 732 mmHg 83%
    21:00 +28°C° 0 mm 1 mps 733 mmHg 85%
    22:00 +28°C° 0 mm 1 mps 733 mmHg 87%
    23:00 +27°C° 0.7 mm 1 mps 733 mmHg 90%

    27 April, Saturday

    Time Temperature Precipitation Wind Pressure Humidity
    00:00 +27°C° 0.7 mm 1 mps 733 mmHg 93%
    01:00 +26°C° 0.7 mm 1 mps 732 mmHg 96%
    02:00 +26°C° 0.5 mm 1 mps 732 mmHg 96%
    03:00 +26°C° 0.5 mm 1 mps 732 mmHg 96%
    04:00 +26°C° 0.5 mm 1 mps 732 mmHg 97%
    05:00 +26°C° 0 mm 1 mps 732 mmHg 96%
    06:00 +26°C° 0 mm 1 mps 733 mmHg 96%
    07:00 +26°C° 0 mm 1 mps 734 mmHg 96%
    08:00 +27°C° 0 mm 1 mps 734 mmHg 90%
    09:00 +29°C° 0 mm 1 mps 734 mmHg 85%
    10:00 +30°C° 0 mm 1 mps 735 mmHg 79%
    11:00 +31°C° 0.2 mm 1 mps 734 mmHg 72%
    12:00 +33°C° 0.2 mm 1 mps 733 mmHg 65%
    13:00 +34°C° 0.2 mm 1 mps 732 mmHg 58%
    14:00 +34°C° 0.1 mm 1 mps 732 mmHg 59%
    15:00 +34°C° 0.1 mm 1 mps 732 mmHg 60%
    16:00 +34°C° 0.1 mm 1 mps 731 mmHg 61%
    17:00 +32°C° 0.5 mm 1 mps 732 mmHg 70%
    18:00 +30°C° 0.5 mm 1 mps 732 mmHg 78%
    19:00 +28°C° 0.5 mm 1 mps 733 mmHg 86%
    20:00 +28°C° 1.4 mm 1 mps 733 mmHg 89%
    21:00 +27°C° 1.4 mm 1 mps 733 mmHg 92%
    22:00 +27°C° 1.4 mm 1 mps 733 mmHg 94%
    23:00 +27°C° 0 mm 1 mps 733 mmHg 95%
    Show more